Wind_Speed
65 63 56 46 45 43 34 33 30 26 25 25 25 24 26 31 31 27 26 28 30 30 35 35 33 34 35 33 36 34 33 36 29 39 30 27 20 26 27 27 25 26 27
60 53 44 42 39 31 27 24 23 24 24 24 24 21 24 27 24 21 17 14 10 16 27 28 27 26 30 34 35 31 35 32 35 33 33 21 20 22 25 26 25 23 20
52 47 39 36 29 24 20 22 24 25 26 24 22 21 21 23 20 19 12 10 8 9 12 16 18 21 22 29 33 33 29 29 29 30 25 26 22 30 28 26 23 22 21
45 37 33 27 22 21 21 23 26 25 25 25 26 22 19 18 18 16 15 16 16 15 16 19 19 17 18 22 28 28 27 23 29 20 26 27 24 25 30 21 20 20 16
38 32 26 22 20 19 21 24 25 27 29 26 27 20 17 18 17 19 20 16 20 23 23 23 24 23 23 22 23 22 27 32 20 25 28 29 27 19 16 17 17 16 16
28 24 21 20 19 20 22 23 25 23 21 26 22 16 18 18 21 21 22 18 16 16 21 25 26 24 24 23 21 23 17 25 29 18 27 29 22 19 18 16 16 20 19
21 20 19 20 20 20 22 20 16 19 22 24 23 16 16 20 21 22 21 15 13 15 18 17 16 16 16 18 19 23 21 21 29 21 20 28 24 18 16 18 17 16 15
17 17 18 20 20 18 14 17 19 22 22 22 20 18 16 15 16 17 16 12 10 8 6 6 14 17 18 16 16 21 20 20 25 25 22 27 26 19 19 15 12 12 14
16 20 20 17 16 17 17 18 19 21 21 19 18 17 17 18 18 16 14 12 9 9 8 7 6 5 12 14 16 17 23 24 23 19 20 20 20 18 16 14 13 16 18
18 15 17 19 21 21 19 18 14 14 17 15 16 16 16 16 15 12 11 11 11 10 11 10 8 6 3 7 8 17 23 19 14 16 17 15 16 18 20 18 18 19 18
21 22 22 22 19 17 13 12 13 13 15 15 15 14 14 14 13 11 10 9 12 12 12 11 10 5 6 10 13 15 19 20 16 13 14 17 20 21 20 20 18 14 11
21 18 17 17 16 16 15 12 10 8 12 14 13 11 12 12 13 12 11 11 13 11 9 9 7 6 0 10 15 15 15 14 14 11 8 6 11 13 12 12 10 7 5
20 19 18 17 15 12 11 10 8 7 8 11 11 9 10 12 12 12 13 14 10 8 8 11 11 9 6 8 15 18 18 15 12 11 12 13 13 13 13 11 11 12 14
11 12 9 7 6 6 7 5 5 5 8 9 8 8 9 10 11 12 12 10 11 10 11 14 14 14 14 15 20 22 23 22 18 17 16 15 14 14 14 19 22 32 32
10 10 9 6 5 4 4 5 6 8 8 6 5 5 8 11 10 11 12 16 17 17 17 18 19 22 25 23 25 27 25 22 19 17 19 20 27 30 30 34 32 29 30
9 8 9 5 4 2 2 4 6 7 8 5 1 6 14 13 17 23 29 31 31 30 32 33 31 31 31 30 30 29 28 28 30 32 34 35 36 35 34 32 31 31 31
12 10 7 6 5 4 3 6 10 12 11 8 11 18 16 23 35 34 31 29 27 29 31 33 34 35 38 40 40 41 40 40 38 37 38 37 37 35 35 34 29 27 30
14 13 12 13 13 12 14 17 18 18 18 20 25 21 29 29 31 30 28 28 30 31 34 37 38 39 40 41 42 42 42 41 40 40 39 37 36 33 31 31 30 29 26
17 18 20 21 22 23 26 27 27 27 31 34 31 31 30 32 29 28 30 34 38 40 40 40 41 42 42 42 42 42 42 42 41 40 39 37 37 37 35 33 33 30 28
21 25 28 31 31 31 33 35 37 38 38 36 35 32 31 29 32 37 41 41 43 43 42 41 41 41 41 41 41 41 39 40 42 39 41 40 37 38 34 32 29 28 27
27 29 29 32 39 44 43 40 38 37 35 33 32 33 35 38 40 43 43 42 40 40 41 39 38 39 41 41 42 41 40 40 41 40 38 35 32 31 33 31 29 29 27
28 30 36 38 38 42 45 43 42 40 35 34 36 40 42 42 42 41 41 42 41 41 39 38 40 41 42 42 41 42 41 40 37 36 36 36 33 31 28 25 24 22 21
31 32 34 38 42 41 40 42 41 38 39 41 42 42 42 40 41 41 43 43 43 42 42 40 40 42 42 41 39 38 38 38 38 35 32 30 27 23 21 20 19 18 17
38 40 44 46 44 42 44 44 44 44 43 42 42 42 42 42 44 45 44 42 42 42 43 44 44 42 41 41 41 39 37 34 30 28 25 22 19 17 16 15 14 14 15
39 41 43 43 41 41 45 47 44 42 42 42 42 43 45 45 46 48 47 45 44 43 42 41 41 40 39 36 33 30 27 24 21 19 18 16 14 12 10 9 9 10 12
40 40 39 39 40 40 41 40 42 41 41 40 41 43 45 44 42 40 39 38 38 37 36 35 33 30 27 24 22 21 19 19 19 17 14 12 10 9 8 9 11 12 13
Wind_Direction
304 306 306 304 301 304 306 308 310 311 315 317 315 321 320 313 309 311 309 294 277 269 246 232 234 236 233 235 241 247 255 249 252 241 258 257 251 232 239 248 241 246 244
306 309 308 304 305 305 308 312 317 320 318 316 323 325 328 318 316 320 322 328 305 266 241 223 223 227 236 231 239 241 246 247 248 249 259 239 244 252 253 258 254 258 255
313 312 308 306 304 305 309 317 320 317 314 317 319 325 327 330 323 320 302 292 274 258 252 251 245 242 247 243 243 244 245 249 233 238 233 245 256 255 255 257 258 259 259
311 310 308 304 302 304 308 318 318 316 319 317 311 315 320 331 335 317 292 273 269 262 256 247 242 248 256 257 248 246 225 232 225 239 235 245 249 255 244 244 251 254 253
309 308 306 303 298 298 305 314 317 313 316 322 306 300 311 317 320 327 326 278 261 258 255 253 257 258 258 254 252 248 239 221 232 216 235 243 253 224 227 229 236 246 253
305 306 302 300 301 304 311 315 313 313 324 335 329 296 295 308 313 314 320 329 278 263 256 257 257 255 253 250 244 243 249 223 225 217 233 237 212 212 218 225 237 250 263
305 304 302 306 308 312 315 314 320 318 326 334 345 333 311 309 308 307 309 315 323 277 259 253 251 245 243 242 241 237 241 223 227 237 239 219 200 213 215 233 245 260 274
306 306 306 305 307 311 314 317 317 316 323 327 339 346 347 335 328 318 311 306 306 313 317 264 248 238 235 234 224 233 220 209 224 226 216 201 195 191 229 237 253 273 277
306 305 305 306 306 306 310 312 312 310 314 320 329 345 348 345 342 330 326 313 308 312 304 297 285 254 229 232 214 210 187 199 217 203 202 220 222 227 237 247 256 271 274
311 315 310 305 303 303 305 305 302 307 310 312 324 337 341 345 341 337 327 318 320 312 305 312 307 286 225 181 196 194 191 195 204 217 214 224 226 230 239 248 253 263 270
310 307 306 308 311 309 309 306 300 293 295 309 319 330 335 344 343 341 333 320 314 321 333 330 320 311 211 196 185 188 189 200 210 215 218 229 238 237 243 252 259 251 263
313 318 320 318 308 301 299 293 291 284 282 297 317 326 328 346 350 348 349 332 337 353 350 345 335 330 101 173 182 183 190 196 198 195 193 182 178 199 192 190 197 228 200
324 319 316 309 304 298 287 281 280 271 280 288 314 320 329 351 353 0 359 6 33 46 49 63 81 90 106 131 149 147 142 135 136 146 145 139 139 146 157 164 164 144 136
341 335 329 312 305 293 288 273 272 294 300 279 308 313 337 357 10 10 27 77 61 62 79 84 92 86 91 120 138 140 136 135 133 136 139 141 143 148 148 141 128 125 125
1 357 344 332 320 298 283 294 288 279 273 259 291 321 2 29 18 39 82 69 68 64 71 83 88 89 92 105 124 137 137 137 133 128 123 117 117 120 123 125 126 128 129
2 2 355 359 7 10 283 290 278 252 206 200 211 38 52 43 56 82 85 85 84 84 88 89 91 91 93 101 113 118 119 116 115 116 117 120 120 120 121 122 123 122 115
13 15 32 35 56 99 94 113 113 118 135 119 87 74 69 83 92 90 88 85 83 88 90 93 93 94 95 98 102 107 110 114 118 119 118 118 117 116 117 116 115 119 119
43 42 56 79 95 99 99 95 97 100 99 88 86 83 91 85 89 87 84 88 91 93 94 95 96 98 100 102 104 106 108 110 113 115 114 112 113 112 112 112 112 116 109
49 64 79 87 89 92 96 97 96 94 94 92 89 90 92 92 89 90 95 97 96 97 98 99 100 102 103 105 107 108 110 110 111 111 112 111 109 106 105 105 105 102 98
71 80 85 91 96 98 96 96 95 93 94 95 93 91 92 92 97 102 102 102 100 98 97 98 99 100 102 104 105 105 105 107 109 108 109 108 104 103 104 105 102 101 96
78 85 92 99 102 101 97 92 94 96 96 96 96 97 99 102 104 104 103 100 98 97 98 98 98 101 103 103 103 103 104 105 106 107 109 105 103 101 101 97 93 93 93
89 100 106 99 94 96 97 95 93 95 97 98 102 102 103 104 102 100 99 96 95 95 95 100 102 102 103 103 103 102 106 107 105 106 105 103 102 100 95 92 90 86 82
98 96 97 101 101 101 101 100 97 96 96 100 101 100 100 100 100 100 99 97 94 94 94 97 105 106 104 104 102 101 102 105 106 105 106 106 103 98 95 92 85 73 61
96 99 101 101 99 102 103 103 102 100 102 102 103 103 102 102 101 101 100 96 93 95 98 100 101 104 103 104 106 105 104 103 105 108 110 108 103 98 90 81 70 56 39
97 102 103 100 100 98 97 97 97 101 102 102 103 106 107 104 103 102 100 98 96 97 100 102 103 104 104 104 104 103 103 102 97 99 101 98 93 82 67 44 21 7 5
97 99 100 97 96 98 99 99 101 101 103 103 105 108 106 104 101 99 98 97 96 96 97 100 103 104 102 99 98 97 97 95 94 90 80 70 59 44 29 15 4 358 358
Height
5679 5671 5662 5655 5648 5641 5635 5629 5624 5621 5617 5613 5610 5606 5602 5597 5590 5584 5579 5575 5574 5575 5579 5584 5591 5595 5600 5604 5609 5614 5618 5619 5623 5624 5625 5628 5630 5638 5642 5647 5649 5652 5655
5665 5657 5651 5644 5638 5633 5629 5625 5620 5616 5613 5609 5605 5601 5597 5591 5585 5580 5576 5572 5570 5571 5574 5578 5584 5589 5593 5597 5601 5605 5608 5610 5612 5618 5620 5623 5628 5632 5636 5640 5642 5645 5647
5652 5646 5640 5634 5630 5626 5624 5620 5616 5612 5608 5604 5601 5597 5592 5587 5582 5579 5576 5574 5574 5574 5576 5578 5582 5586 5589 5590 5594 5597 5601 5605 5606 5611 5615 5618 5622 5625 5631 5634 5637 5640 5642
5642 5637 5631 5627 5624 5622 5619 5615 5611 5607 5603 5599 5595 5591 5588 5584 5581 5577 5574 5572 5572 5572 5573 5575 5577 5580 5582 5584 5588 5591 5595 5599 5602 5606 5610 5614 5619 5622 5627 5629 5634 5639 5640
5633 5629 5625 5622 5619 5617 5614 5610 5606 5602 5598 5592 5587 5586 5583 5580 5577 5574 5570 5567 5567 5567 5568 5570 5571 5573 5576 5578 5581 5585 5587 5593 5597 5603 5607 5612 5616 5619 5622 5626 5631 5635 5636
5626 5623 5620 5618 5615 5612 5609 5605 5601 5597 5593 5588 5581 5579 5578 5576 5573 5570 5567 5564 5561 5561 5561 5562 5564 5566 5568 5570 5574 5579 5583 5587 5592 5598 5602 5607 5612 5616 5619 5624 5627 5631 5632
5620 5618 5616 5614 5611 5607 5604 5600 5597 5593 5590 5585 5581 5576 5573 5571 5568 5565 5562 5560 5558 5556 5555 5556 5557 5559 5561 5563 5567 5571 5577 5583 5589 5594 5598 5602 5607 5611 5617 5621 5624 5627 5627
5617 5614 5612 5609 5606 5603 5600 5598 5594 5590 5587 5583 5579 5575 5571 5568 5565 5561 5558 5557 5555 5553 5552 5551 5552 5553 5555 5558 5562 5566 5572 5577 5585 5592 5596 5599 5603 5608 5613 5617 5619 5622 5624
5614 5611 5608 5604 5602 5600 5597 5595 5591 5588 5584 5581 5578 5574 5570 5566 5563 5559 5556 5554 5552 5551 5549 5549 5549 5550 5551 5555 5559 5564 5570 5576 5583 5590 5595 5598 5602 5606 5609 5613 5616 5620 5622
5610 5607 5604 5600 5597 5595 5592 5590 5588 5585 5582 5580 5576 5573 5569 5566 5563 5559 5556 5553 5551 5549 5547 5546 5547 5548 5550 5552 5557 5562 5568 5575 5581 5587 5591 5595 5599 5603 5607 5611 5615 5618 5618
5606 5602 5599 5596 5593 5590 5588 5587 5585 5584 5581 5579 5577 5573 5570 5566 5563 5559 5556 5554 5551 5549 5548 5546 5544 5546 5549 5553 5558 5563 5569 5575 5580 5584 5588 5592 5595 5600 5603 5607 5611 5614 5616
5601 5597 5593 5591 5589 5587 5586 5584 5583 5582 5581 5579 5576 5574 5571 5567 5563 5560 5558 5555 5553 5550 5548 5547 5546 5546 5549 5553 5557 5563 5569 5574 5579 5582 5585 5588 5592 5596 5600 5607 5611 5614 5616
5596 5592 5589 5587 5585 5584 5583 5582 5582 5581 5580 5579 5577 5574 5572 5568 5566 5563 5560 5558 5555 5554 5551 5549 5548 5549 5549 5552 5558 5564 5570 5574 5579 5583 5587 5591 5595 5599 5604 5608 5612 5615 5618
5592 5590 5588 5585 5583 5582 5582 5582 5581 5580 5580 5579 5578 5576 5574 5571 5569 5566 5565 5563 5560 5557 5556 5554 5553 5553 5552 5554 5559 5567 5573 5578 5583 5588 5592 5596 5599 5603 5606 5610 5615 5619 5623
5593 5590 5587 5584 5582 5581 5581 5580 5580 5580 5580 5581 5580 5579 5576 5575 5573 5571 5569 5567 5565 5563 5561 5560 5560 5560 5559 5560 5565 5571 5578 5584 5589 5593 5597 5600 5603 5607 5612 5617 5622 5626 5630
5592 5590 5586 5584 5582 5581 5581 5581 5580 5579 5581 5582 5582 5582 5581 5580 5578 5576 5576 5575 5574 5572 5571 5570 5570 5570 5570 5572 5575 5580 5585 5590 5595 5600 5605 5608 5613 5618 5622 5626 5630 5633 5637
5592 5589 5586 5583 5582 5582 5582 5582 5582 5583 5584 5586 5587 5587 5587 5586 5586 5586 5586 5585 5584 5583 5583 5582 5582 5582 5582 5584 5587 5591 5596 5601 5606 5610 5616 5620 5624 5628 5632 5635 5638 5641 5643
5595 5591 5588 5586 5586 5586 5586 5587 5588 5589 5591 5592 5594 5594 5595 5595 5595 5596 5595 5595 5595 5595 5595 5595 5596 5596 5598 5600 5603 5606 5610 5614 5618 5623 5628 5631 5635 5638 5642 5644 5646 5649 5652
5601 5597 5594 5592 5592 5593 5594 5595 5596 5597 5599 5600 5602 5603 5604 5605 5605 5605 5605 5606 5606 5606 5607 5608 5609 5611 5613 5615 5617 5620 5624 5628 5632 5636 5640 5643 5647 5649 5651 5654 5657 5659 5661
5608 5605 5603 5602 5602 5603 5603 5605 5606 5607 5609 5611 5612 5613 5614 5615 5615 5616 5616 5618 5619 5620 5621 5622 5624 5625 5627 5629 5632 5635 5638 5642 5646 5649 5652 5655 5658 5660 5663 5665 5666 5668 5670
5618 5615 5615 5613 5614 5614 5615 5616 5617 5619 5621 5623 5623 5623 5624 5626 5628 5629 5630 5631 5632 5634 5634 5635 5637 5639 5641 5644 5646 5649 5652 5655 5658 5661 5665 5667 5669 5671 5673 5674 5676 5677 5678
5629 5627 5626 5626 5626 5627 5628 5629 5630 5631 5632 5634 5634 5635 5636 5640 5641 5642 5643 5644 5645 5646 5647 5648 5650 5653 5655 5658 5660 5663 5665 5668 5671 5673 5676 5678 5680 5681 5682 5683 5683 5684 5684
5641 5640 5639 5639 5639 5640 5640 5641 5642 5644 5644 5645 5647 5649 5650 5653 5654 5656 5657 5658 5659 5660 5661 5662 5664 5666 5669 5671 5673 5675 5678 5681 5683 5685 5686 5687 5689 5689 5690 5690 5691 5691 5690
5654 5653 5653 5653 5653 5652 5652 5653 5654 5656 5657 5658 5659 5661 5663 5665 5667 5669 5670 5671 5672 5673 5674 5676 5678 5680 5682 5684 5686 5688 5690 5692 5693 5694 5695 5696 5696 5697 5697 5698 5698 5697 5697
5668 5667 5666 5667 5666 5666 5666 5667 5668 5670 5671 5672 5673 5674 5676 5678 5680 5682 5683 5684 5685 5686 5687 5689 5691 5693 5695 5696 5698 5699 5700 5702 5702 5703 5704 5704 5704 5705 5704 5704 5702 5700 5698
5680 5680 5680 5679 5679 5679 5680 5680 5682 5683 5684 5685 5687 5689 5690 5692 5694 5695 5696 5697 5698 5699 5701 5702 5703 5705 5706 5707 5708 5709 5710 5710 5711 5711 5711 5711 5710 5709 5707 5706 5704 5702 5699